| time (UTC) | temp F | wind direction | speed MPH | gust MPH | rain 1hr in | rain 24hr in | rain mn in | humidity % | barometer mb |
| 20260906152819 | 71 | 195 | 0.0 | 2.0 | 0.00 | 0.00 | 0.00 | 69 | 1015.6 |
| 20260906151827 | 71 | 193 | 0.0 | 2.0 | 0.00 | 0.00 | 0.00 | 70 | 1015.6 |
| 20260906151320 | 70 | 193 | 0.0 | 2.0 | 0.00 | 0.00 | 0.00 | 70 | 1015.5 |
| 20260906145819 | 69 | 167 | 0.0 | 2.0 | 0.00 | 0.00 | 0.00 | 72 | 1015.4 |
| 20260906144319 | 68 | 158 | 0.0 | 0.0 | 0.00 | 0.00 | 0.00 | 76 | 1015.4 |
| 20260906142818 | 66 | 230 | 0.0 | 0.0 | 0.00 | 0.00 | 0.00 | 83 | 1015.7 |
| 20260906141320 | 64 | 230 | 0.0 | 0.0 | 0.00 | 0.00 | 0.00 | 90 | 1015.8 |
| 20260906135820 | 62 | 230 | 0.0 | 0.0 | 0.00 | 0.00 | 0.00 | 96 | 1016.2 |
| 20260906134318 | 62 | 230 | 0.0 | 0.0 | 0.00 | 0.00 | 0.00 | 98 | 1016.2 |
| 20260906132820 | 62 | 230 | 0.0 | 0.0 | 0.00 | 0.00 | 0.00 | 98 | 1016.0 |
| 20260906131320 | 61 | 230 | 0.0 | 0.0 | 0.00 | 0.00 | 0.00 | 98 | 1015.7 |
| 20260906125819 | 60 | 230 | 0.0 | 0.0 | 0.00 | 0.00 | 0.00 | 98 | 1015.8 |
| 20260906124829 | 60 | 230 | 0.0 | 0.0 | 0.00 | 0.00 | 0.00 | 97 | 1015.8 |
| 20260906124320 | 59 | 230 | 0.0 | 0.0 | 0.00 | 0.00 | 0.00 | 97 | 1015.7 |
| 20260906122819 | 59 | 230 | 0.0 | 0.0 | 0.00 | 0.00 | 0.00 | 97 | 1015.5 |
| 20260906121826 | 59 | 230 | 0.0 | 0.0 | 0.00 | 0.00 | 0.00 | 96 | 1015.5 |
| 20260906121320 | 59 | 230 | 0.0 | 0.0 | 0.00 | 0.00 | 0.00 | 96 | 1015.3 |
| 20260906120826 | 59 | 230 | 0.0 | 0.0 | 0.00 | 0.00 | 0.00 | 96 | 1015.3 |
| 20260906115820 | 59 | 230 | 0.0 | 0.0 | 0.00 | 0.00 | 0.00 | 96 | 1015.2 |
| 20260906114823 | 59 | 230 | 0.0 | 0.0 | 0.00 | 0.00 | 0.00 | 96 | 1015.2 |
| 20260906114319 | 59 | 230 | 0.0 | 0.0 | 0.00 | 0.00 | 0.00 | 96 | 1015.0 |
| 20260906112818 | 59 | 230 | 0.0 | 0.0 | 0.00 | 0.00 | 0.00 | 96 | 1014.9 |
| 20260906111827 | 59 | 230 | 0.0 | 0.0 | 0.00 | 0.00 | 0.00 | 96 | 1014.9 |
| 20260906111319 | 60 | 230 | 0.0 | 0.0 | 0.00 | 0.00 | 0.00 | 96 | 1014.5 |
| 20260906105820 | 60 | 230 | 0.0 | 0.0 | 0.00 | 0.00 | 0.00 | 96 | 1014.7 |
| 20260906104826 | 60 | 230 | 0.0 | 0.0 | 0.00 | 0.00 | 0.00 | 96 | 1014.7 |
| 20260906104319 | 60 | 230 | 0.0 | 0.0 | 0.00 | 0.00 | 0.00 | 96 | 1014.4 |
| 20260906102818 | 61 | 230 | 0.0 | 0.0 | 0.00 | 0.00 | 0.00 | 95 | 1014.3 |
| 20260906101320 | 61 | 230 | 0.0 | 0.0 | 0.00 | 0.00 | 0.00 | 95 | 1014.1 |
| 20260906095819 | 62 | 230 | 0.0 | 0.0 | 0.00 | 0.00 | 0.00 | 95 | 1014.1 |
| 20260906094824 | 62 | 230 | 0.0 | 0.0 | 0.00 | 0.00 | 0.00 | 95 | 1014.1 |
| 20260906094318 | 62 | 230 | 0.0 | 0.0 | 0.00 | 0.00 | 0.00 | 95 | 1014.1 |
| 20260906092820 | 63 | 230 | 0.0 | 0.0 | 0.00 | 0.00 | 0.00 | 95 | 1014.1 |
| 20260906091824 | 63 | 230 | 0.0 | 0.0 | 0.00 | 0.00 | 0.00 | 95 | 1014.1 |
| 20260906091319 | 63 | 230 | 0.0 | 0.0 | 0.00 | 0.00 | 0.00 | 95 | 1014.1 |
| 20260906085820 | 63 | 230 | 0.0 | 0.0 | 0.00 | 0.00 | 0.00 | 95 | 1013.9 |
| 20260906084824 | 64 | 230 | 0.0 | 0.0 | 0.00 | 0.00 | 0.00 | 95 | 1013.9 |
| 20260906084318 | 64 | 230 | 0.0 | 0.0 | 0.00 | 0.00 | 0.00 | 95 | 1013.9 |
| 20260906084203 | 64 | 230 | 0.0 | 0.0 | 0.00 | 0.00 | 0.00 | 95 | 1013.9 |
| 20260906083934 | 64 | 230 | 0.0 | 0.0 | 0.00 | 0.00 | 0.00 | 95 | 1013.9 |
| 20260906083823 | 64 | 230 | 0.0 | 0.0 | 0.00 | 0.00 | 0.00 | 95 | 1013.9 |
| 20260906082820 | 64 | 230 | 0.0 | 0.0 | 0.00 | 0.00 | 0.00 | 95 | 1013.9 |
| 20260906081319 | 65 | 230 | 0.0 | 0.0 | 0.00 | 0.00 | 0.00 | 95 | 1014.0 |
| 20260906080823 | 65 | 230 | 0.0 | 0.0 | 0.00 | 0.00 | 0.00 | 95 | 1014.0 |
| 20260906075819 | 65 | 230 | 0.0 | 0.0 | 0.00 | 0.00 | 0.00 | 95 | 1014.3 |
| 20260906074822 | 65 | 230 | 0.0 | 0.0 | 0.00 | 0.00 | 0.00 | 94 | 1014.3 |
| 20260906074319 | 65 | 230 | 0.0 | 0.0 | 0.00 | 0.00 | 0.00 | 94 | 1014.1 |
| 20260906073823 | 65 | 230 | 0.0 | 0.0 | 0.00 | 0.00 | 0.00 | 94 | 1014.1 |
| 20260906072911 | 65 | 230 | 0.0 | 0.0 | 0.00 | 0.00 | 0.00 | 93 | 1014.2 |
| 20260906072818 | 65 | 230 | 0.0 | 0.0 | 0.00 | 0.00 | 0.00 | 93 | 1014.2 |
| 20260906071856 | 65 | 230 | 0.0 | 0.0 | 0.00 | 0.00 | 0.00 | 93 | 1014.2 |
| 20260906071822 | 65 | 230 | 0.0 | 0.0 | 0.00 | 0.00 | 0.00 | 93 | 1014.2 |
| 20260906071320 | 65 | 230 | 0.0 | 0.0 | 0.00 | 0.00 | 0.00 | 93 | 1013.9 |
| 20260906070827 | 66 | 230 | 0.0 | 0.0 | 0.00 | 0.00 | 0.00 | 93 | 1013.9 |
| 20260906065820 | 66 | 230 | 0.0 | 0.0 | 0.00 | 0.00 | 0.00 | 92 | 1013.7 |
| 20260906064824 | 66 | 230 | 0.0 | 0.0 | 0.00 | 0.00 | 0.00 | 92 | 1013.7 |
| 20260906064318 | 66 | 230 | 0.0 | 0.0 | 0.00 | 0.00 | 0.00 | 92 | 1013.8 |
| 20260906062818 | 66 | 232 | 0.0 | 0.0 | 0.00 | 0.00 | 0.00 | 92 | 1014.0 |
| 20260906061826 | 66 | 230 | 0.0 | 0.0 | 0.00 | 0.00 | 0.00 | 92 | 1014.0 |
| 20260906061318 | 66 | 232 | 0.0 | 0.0 | 0.00 | 0.00 | 0.00 | 91 | 1014.1 |
| 20260906055855 | 66 | 230 | 0.0 | 0.0 | 0.00 | 0.00 | 0.00 | 91 | 1014.1 |
| 20260906055820 | 66 | 230 | 0.0 | 0.0 | 0.00 | 0.00 | 0.00 | 91 | 1014.1 |
| 20260906054823 | 67 | 232 | 0.0 | 3.0 | 0.00 | 0.00 | 0.00 | 91 | 1014.1 |
| 20260906054319 | 67 | 232 | 0.0 | 3.0 | 0.00 | 0.00 | 0.00 | 91 | 1014.1 |
| 20260906052819 | 67 | 230 | 0.0 | 3.0 | 0.00 | 0.00 | 0.00 | 91 | 1013.6 |
| 20260906051824 | 67 | 232 | 0.0 | 3.0 | 0.00 | 0.00 | 0.00 | 91 | 1013.6 |
| 20260906051319 | 67 | 230 | 0.0 | 3.0 | 0.00 | 0.00 | 0.00 | 90 | 1013.7 |
| 20260906045819 | 67 | 232 | 0.0 | 3.0 | 0.00 | 0.00 | 0.00 | 90 | 1013.5 |
| 20260906044319 | 68 | 230 | 0.0 | 0.0 | 0.00 | 0.00 | 0.00 | 89 | 1013.3 |
| 20260906043827 | 68 | 232 | 0.0 | 0.0 | 0.00 | 0.00 | 0.00 | 89 | 1013.3 |
| 20260906042820 | 68 | 232 | 0.0 | 0.0 | 0.00 | 0.00 | 0.00 | 89 | 1012.9 |
| 20260906041318 | 68 | 232 | 0.0 | 0.0 | 0.00 | 0.00 | 0.00 | 89 | 1012.8 |
| 20260906035818 | 68 | 232 | 0.0 | 0.0 | 0.00 | 0.00 | 0.00 | 88 | 1012.7 |
| 20260906034824 | 68 | 232 | 0.0 | 0.0 | 0.00 | 0.00 | 0.00 | 87 | 1012.7 |
| 20260906034319 | 68 | 232 | 0.0 | 0.0 | 0.00 | 0.00 | 0.00 | 87 | 1012.8 |
| 20260906032817 | 69 | 232 | 0.0 | 0.0 | 0.00 | 0.00 | 0.00 | 86 | 1012.7 |
| 20260906031823 | 69 | 232 | 0.0 | 0.0 | 0.00 | 0.00 | 0.00 | 86 | 1012.7 |
| 20260906031318 | 69 | 232 | 0.0 | 0.0 | 0.00 | 0.00 | 0.00 | 85 | 1012.7 |
| 20260906030824 | 69 | 232 | 0.0 | 0.0 | 0.00 | 0.00 | 0.00 | 85 | 1012.7 |
| 20260906025820 | 70 | 232 | 0.0 | 0.0 | 0.00 | 0.00 | 0.00 | 85 | 1012.3 |
| 20260906024823 | 70 | 232 | 0.0 | 0.0 | 0.00 | 0.00 | 0.00 | 84 | 1012.3 |
| 20260906024319 | 70 | 232 | 0.0 | 0.0 | 0.00 | 0.00 | 0.00 | 84 | 1012.3 |
| 20260906023824 | 70 | 232 | 0.0 | 0.0 | 0.00 | 0.00 | 0.00 | 84 | 1012.3 |
| 20260906022820 | 70 | 232 | 0.0 | 0.0 | 0.00 | 0.00 | 0.00 | 83 | 1012.2 |
| 20260906021318 | 71 | 232 | 0.0 | 0.0 | 0.00 | 0.00 | 0.00 | 82 | 1012.2 |
| 20260906015817 | 72 | 232 | 0.0 | 0.0 | 0.00 | 0.00 | 0.00 | 81 | 1012.3 |
| 20260906014824 | 72 | 232 | 0.0 | 0.0 | 0.00 | 0.00 | 0.00 | 80 | 1012.3 |
| 20260906014317 | 72 | 232 | 0.0 | 0.0 | 0.00 | 0.00 | 0.00 | 80 | 1012.1 |
| 20260906013823 | 72 | 232 | 0.0 | 0.0 | 0.00 | 0.00 | 0.00 | 80 | 1012.1 |
| 20260906012819 | 73 | 232 | 0.0 | 0.0 | 0.00 | 0.00 | 0.00 | 79 | 1011.9 |
| 20260906011317 | 73 | 232 | 0.0 | 0.0 | 0.00 | 0.00 | 0.00 | 77 | 1011.6 |
| 20260906010825 | 73 | 232 | 0.0 | 0.0 | 0.00 | 0.00 | 0.00 | 76 | 1011.6 |
| 20260906005818 | 74 | 232 | 0.0 | 0.0 | 0.00 | 0.00 | 0.00 | 76 | 1011.6 |
| 20260906004319 | 74 | 232 | 0.0 | 0.0 | 0.00 | 0.00 | 0.00 | 74 | 1011.5 |
| 20260906003823 | 75 | 232 | 0.0 | 0.0 | 0.00 | 0.00 | 0.00 | 73 | 1011.5 |
| 20260906002817 | 75 | 232 | 0.0 | 0.0 | 0.00 | 0.00 | 0.00 | 73 | 1011.2 |
| 20260906001825 | 76 | 232 | 0.0 | 0.0 | 0.00 | 0.00 | 0.00 | 72 | 1011.2 |
| 20260906001318 | 77 | 232 | 0.0 | 0.0 | 0.00 | 0.00 | 0.00 | 70 | 1011.1 |
| 20260906000823 | 77 | 232 | 0.0 | 0.0 | 0.00 | 0.00 | 0.00 | 69 | 1011.1 |
| 20260905235817 | 78 | 232 | 0.0 | 0.0 | 0.00 | 0.00 | 0.00 | 66 | 1011.0 |
| 20260905234318 | 79 | 232 | 0.0 | 3.0 | 0.00 | 0.00 | 0.00 | 64 | 1010.9 |
| 20260905233823 | 79 | 232 | 0.0 | 3.0 | 0.00 | 0.00 | 0.00 | 64 | 1010.9 |
| 20260905232819 | 80 | 232 | 0.0 | 3.0 | 0.00 | 0.00 | 0.00 | 62 | 1010.9 |
| 20260905231318 | 81 | 232 | 0.0 | 3.0 | 0.00 | 0.00 | 0.00 | 58 | 1011.1 |
| 20260905225818 | 81 | 232 | 0.0 | 3.0 | 0.00 | 0.00 | 0.00 | 58 | 1011.1 |
| 20260905224317 | 81 | 232 | 0.0 | 5.0 | 0.00 | 0.00 | 0.00 | 60 | 1011.0 |
| 20260905222819 | 82 | 232 | 0.0 | 5.0 | 0.00 | 0.00 | 0.00 | 55 | 1010.9 |
| 20260905221318 | 82 | 232 | 0.0 | 5.0 | 0.00 | 0.00 | 0.00 | 54 | 1011.1 |
| 20260905215817 | 82 | 232 | 0.0 | 5.0 | 0.00 | 0.00 | 0.00 | 55 | 1011.3 |
| 20260905214822 | 82 | 232 | 0.0 | 6.0 | 0.00 | 0.00 | 0.00 | 56 | 1011.3 |
| 20260905214318 | 82 | 232 | 0.0 | 6.0 | 0.00 | 0.00 | 0.00 | 56 | 1011.5 |
| 20260905213823 | 82 | 232 | 0.0 | 6.0 | 0.00 | 0.00 | 0.00 | 55 | 1011.5 |
| 20260905212819 | 83 | 232 | 0.0 | 6.0 | 0.00 | 0.00 | 0.00 | 54 | 1011.5 |
| 20260905211824 | 83 | 232 | 0.0 | 6.0 | 0.00 | 0.00 | 0.00 | 54 | 1011.5 |
| 20260905211317 | 83 | 232 | 0.0 | 6.0 | 0.00 | 0.00 | 0.00 | 54 | 1011.3 |
| 20260905205819 | 82 | 247 | 0.0 | 6.0 | 0.00 | 0.00 | 0.00 | 55 | 1011.4 |
| 20260905204318 | 81 | 227 | 0.0 | 0.0 | 0.00 | 0.00 | 0.00 | 57 | 1011.4 |
| 20260905202817 | 81 | 198 | 0.0 | 0.0 | 0.00 | 0.00 | 0.00 | 58 | 1011.5 |
| 20260905201318 | 80 | 192 | 0.0 | 0.0 | 0.00 | 0.00 | 0.00 | 58 | 1011.8 |
| 20260905195818 | 80 | 232 | 0.0 | 0.0 | 0.00 | 0.00 | 0.00 | 59 | 1011.9 |
| 20260905194824 | 80 | 236 | 0.0 | 3.0 | 0.00 | 0.00 | 0.00 | 60 | 1011.9 |
| 20260905194317 | 80 | 239 | 0.0 | 3.0 | 0.00 | 0.00 | 0.00 | 59 | 1011.8 |
| 20260905193823 | 81 | 23 | 0.0 | 3.0 | 0.00 | 0.00 | 0.00 | 61 | 1011.8 |
| 20260905192817 | 81 | 21 | 0.0 | 3.0 | 0.00 | 0.00 | 0.00 | 60 | 1011.6 |
| 20260905191824 | 81 | 21 | 0.0 | 3.0 | 0.00 | 0.00 | 0.00 | 60 | 1011.6 |
| 20260905191317 | 81 | 21 | 0.0 | 3.0 | 0.00 | 0.00 | 0.00 | 61 | 1011.8 |
| 20260905190824 | 80 | 21 | 0.0 | 3.0 | 0.00 | 0.00 | 0.00 | 60 | 1011.8 |
| 20260905185818 | 81 | 7 | 2.0 | 3.0 | 0.00 | 0.00 | 0.00 | 59 | 1011.8 |
| 20260905184823 | 81 | 28 | 0.0 | 3.0 | 0.00 | 0.00 | 0.00 | 60 | 1011.8 |
| 20260905184317 | 81 | 123 | 0.0 | 3.0 | 0.00 | 0.00 | 0.00 | 60 | 1012.0 |
| 20260905182817 | 79 | 59 | 0.0 | 3.0 | 0.00 | 0.00 | 0.00 | 64 | 1012.0 |
| 20260905181824 | 79 | 59 | 0.0 | 3.0 | 0.00 | 0.00 | 0.00 | 65 | 1012.0 |
| 20260905181318 | 78 | 158 | 0.0 | 3.0 | 0.00 | 0.00 | 0.00 | 64 | 1012.1 |
| 20260905175819 | 78 | 164 | 0.0 | 3.0 | 0.00 | 0.00 | 0.00 | 64 | 1012.4 |
| 20260905174318 | 78 | 168 | 0.0 | 3.0 | 0.00 | 0.00 | 0.00 | 67 | 1012.4 |
| 20260905172817 | 76 | 128 | 0.0 | 3.0 | 0.00 | 0.00 | 0.00 | 70 | 1012.6 |
| 20260905171824 | 75 | 85 | 0.0 | 3.0 | 0.00 | 0.00 | 0.00 | 71 | 1012.6 |
| 20260905171317 | 74 | 85 | 0.0 | 3.0 | 0.00 | 0.00 | 0.00 | 71 | 1012.7 |
| 20260905170824 | 74 | 85 | 0.0 | 3.0 | 0.00 | 0.00 | 0.00 | 73 | 1012.7 |
| 20260905165819 | 73 | 176 | 0.0 | 3.0 | 0.00 | 0.00 | 0.00 | 73 | 1012.8 |
| 20260905164318 | 73 | 176 | 5.0 | 1.0 | 0.00 | 0.00 | 0.00 | 75 | 1013.1 |
| 20260905163823 | 73 | 73 | 0.0 | 1.0 | 0.00 | 0.00 | 0.00 | 75 | 1013.1 |
| 20260905162817 | 72 | 73 | 0.0 | 1.0 | 0.00 | 0.00 | 0.00 | 77 | 1013.0 |
| 20260905161318 | 72 | 45 | 0.0 | 1.0 | 0.00 | 0.00 | 0.00 | 79 | 1013.0 |
| 20260905160822 | 72 | 45 | 0.0 | 1.0 | 0.00 | 0.00 | 0.00 | 79 | 1013.0 |
| 20260905155818 | 71 | 45 | 0.0 | 1.0 | 0.00 | 0.00 | 0.00 | 81 | 1012.9 |
| 20260905154823 | 71 | 47 | 0.0 | 3.0 | 0.00 | 0.00 | 0.00 | 81 | 1012.9 |
| 20260905154317 | 70 | 47 | 0.0 | 3.0 | 0.00 | 0.00 | 0.00 | 83 | 1012.9 |
| 20260905153822 | 70 | 47 | 0.0 | 3.0 | 0.00 | 0.00 | 0.00 | 84 | 1012.9 |